Location: Buchberg
(46.9333°N, 15.8500°E)
Time: 19:48:33
(UTC+00:00)

Cosmos 1378 - Pass Details

Date: 14 July 2020
Orbit: 493 x 500 km, 82.5° (Epoch: 05 August)

Event Time Altitude Azimuth Distance (km) Brightness Sun altitude
Rises 01:50:52 0° 351° (N) 2,606 7.4 -11.6°
Reaches altitude 10° 01:52:59 10° 352° (N) 1,718 6.5 -11.4°
Maximum altitude 01:56:46 85° 82° (E) 509 3.1 -11.0°
Drops below altitude 10° 02:00:30 10° 170° (S) 1,703 5.5 -10.6°
Enters shadow 02:01:45 - 171° (S) 2,223 6.0 -10.4°
